Location: ??????????
(54.8537°N, 38.8755°E)
Time: 22:34:53
(UTC+00:00)

Transit 2A Rocket - Pass Details

Date: 14 September 2024
Orbit: 582 x 908 km, 66.7° (Epoch: 09 October)

Event Time Altitude Azimuth Distance (km) Brightness Sun altitude
Exits shadow 21:58:40 63° 46° (NE) 1,012 5.6 -31.6°
Drops below altitude 10° 22:03:43 10° 43° (NE) 2,595 8.4 -31.5°
Sets 22:06:14 0° 43° (NE) 3,522 9.3 -31.4°
